Regional Weather Roundup
Issued by NWS Nashville, TN

Current Version | Previous Version | Text Only | Print | Product List | Glossary On
Versions: 1 2 3 4 5 6 7 8 9 10 11 12 13 14 15 16 17 18 19 20 21 22 23 24 25 26 27 28
000
ASUS44 KOHX 011810
RWROHX
MIDDLE TENNESSEE HOURLY WEATHER ROUNDUP
NATIONAL WEATHER SERVICE NASHVILLE TN
100 PM CDT SUN MAY 01 2016

NOTE: "FAIR" INDICATES FEW OR NO CLOUDS BELOW 12,000 FEET WITH
NO SIGNIFICANT WEATHER AND/OR OBSTRUCTIONS TO VISIBILITY.

* THESE REPORTS ARE NOT UNDER NWS QUALITY CONTROL AND MAY NOT
  REPORT WEATHER SUCH AS PRECIPITATION AND FOG.


TNZ005>011-023>034-057-059-062>066-078-080-011900
...NORTHERN MIDDLE TENNESSEE...

CITY           SKY/WX    TMP DP  RH WIND       PRES   REMARKS
CLARKSVILLE    PTSUNNY   77  66  68 S10       29.93F
CROSSVILLE     PTSUNNY   75  61  61 CALM      30.02S
NASHVILLE      PTSUNNY   79  63  57 S13G18    29.96F
SMYRNA         PTSUNNY   79  64  59 SW12      29.97F
SPARTA         PTSUNNY   79  66  65 W7        29.97F
$$
TNZ056-058-060-061-075>077-079-093>097-011900
...SOUTHERN MIDDLE TENNESSEE...

CITY           SKY/WX    TMP DP  RH WIND       PRES   REMARKS
COLUMBIA       PTSUNNY   79  73  83 S9        29.95F
FAYETTEVILLE   PTSUNNY   75  64  69 SW10G18   30.01S
MCMINNVILLE    MOSUNNY   79  64  61 SW10      29.99F
SHELBYVILLE    PTSUNNY   79  66  65 SW10      30.00R
TULLAHOMA      PTSUNNY   75  66  73 SW10      30.01S
WINCHESTER     PTSUNNY   79  64  61 SW13      30.01R
$$


...KEY TO REMARKS...
VSB - VISIBILITY IN MILES
WCI - WIND CHILL INDEX
HX  - HEAT INDEX





USA.gov is the U.S. government's official web portal to all federal, state and local government web resources and services.